{"data":{"norad_id":47752,"intl_designator":"2021-017AG","name":"STARLINK-2169","alt_names":[],"object_type":"PAYLOAD","status":"ACTIVE","operator":null,"country":"US","launch_date":"2021-03-04","launch_site_code":"AFETR","launch_vehicle":null,"mission":null,"orbit_class":"UNKNOWN","rcs_meters":null,"size_class":null,"mass_kg":null,"dimensions":null,"purposes":["comms"],"wikipedia_slug":null,"has_3d_model":false,"image_url":null,"decayed_at":null,"tle_current":{"epoch":"2026-09-07T19:43:46.361568Z","epoch_age_seconds":1121060,"freshness":"AGED","line1":"1 47752U 21017AG  26250.82206437  .03380343  12064-4  81638-3 0  9993","line2":"2 47752  53.1332  27.3903 0013889 312.7027  47.2845 16.28388639306473","mean_motion":16.28388639,"eccentricity":0.0013889,"inclination_deg":53.1332,"raan_deg":27.3903,"arg_perigee_deg":312.7027,"mean_anomaly_deg":47.2845,"bstar":0.00081638,"rev_number":30647,"period_min":88.430978054742,"perigee_km":187.74169167693,"apogee_km":206.00575646625,"semimajor_km":6575.0107240716,"source":"CELESTRAK","updated_at":"2026-09-08T09:01:18.539801Z"}}}